This is the latest recevied weather packets stored in our database for station/object AE0NK. If no packets are shown the sender has not sent any weather packets the latest 10 day(s).
| Time | Temp. | Humidity | Pressure | Rain* | Wind** | Luminosity | Snow |
|---|---|---|---|---|---|---|---|
| 1777572803 | 11.67° C | 74% | 1015.9 hPa | 0 mm | - | 345 W/m² | - |
| 1777572503 | 12.22° C | 75% | 1015.9 hPa | 0 mm | - | 494 W/m² | - |
| 1777572200 | 12.22° C | 76% | 1015.9 hPa | 0 mm | - | 684 W/m² | - |
| 1777571896 | 11.67° C | 77% | 1016 hPa | 0 mm | - | 513 W/m² | - |
| 1777571594 | 11.11° C | 80% | 1016.1 hPa | 0 mm | - | 552 W/m² | - |
| 1777571293 | 10.56° C | 80% | 1016.2 hPa | 0 mm | - | 380 W/m² | - |
| 1777570992 | 10.56° C | 79% | 1016.3 hPa | 0 mm | - | 243 W/m² | - |
| 1777570710 | 10.56° C | 79% | 1016.3 hPa | 0 mm | - | 185 W/m² | - |
| 1777570408 | 10.56° C | 80% | 1016.3 hPa | 0 mm | - | 128 W/m² | - |
| 1777570105 | 10.56° C | 80% | 1016.4 hPa | 0 mm | - | 111 W/m² | - |
| 1777569801 | 10.56° C | 80% | 1016.5 hPa | 0 mm | - | 95 W/m² | - |
| 1777569499 | 10.56° C | 79% | 1016.5 hPa | 0 mm | - | 118 W/m² | - |
| 1777569197 | 10.56° C | 79% | 1016.6 hPa | 0 mm | - | 144 W/m² | - |
| 1777568895 | 10.56° C | 79% | 1016.6 hPa | 0 mm | - | 118 W/m² | - |
| 1777568593 | 10.56° C | 79% | 1016.8 hPa | 0 mm | - | 98 W/m² | - |
| 1777568309 | 10.56° C | 78% | 1016.7 hPa | 0 mm | - | 104 W/m² | - |
| 1777568008 | 11.11° C | 77% | 1016.8 hPa | 0 mm | - | 105 W/m² | - |
| 1777567704 | 11.11° C | 76% | 1016.8 hPa | 0 mm | - | 79 W/m² | - |
| 1777567404 | 11.11° C | 74% | 1016.9 hPa | 0 mm | - | 74 W/m² | - |
| 1777567101 | 11.67° C | 72% | 1016.9 hPa | 0 mm | - | 86 W/m² | - |
| 1777566799 | 11.67° C | 72% | 1016.9 hPa | 0 mm | - | 174 W/m² | - |
| 1777566499 | 11.67° C | 73% | 1017 hPa | 0 mm | - | 271 W/m² | - |
| 1777566197 | 11.67° C | 72% | 1017 hPa | 0 mm | - | 320 W/m² | - |
| 1777565895 | 11.67° C | 70% | 1017 hPa | 0 mm | - | 186 W/m² | - |
| 1777565593 | 11.67° C | 68% | 1017 hPa | 0 mm | - | 172 W/m² | - |
* Rain latest hour (hover to see other rain measurements)
** Current wind speed in m/s (hover to see current wind gust speed)